Weather History for KIJX - May, 2013

Change the Weather History Date:

Wednesday, May 22, 2013

  Actual Average (KSPI) Record (KSPI)
Temperature  
Mean Temperature 67 °F 66 °F  
Max Temperature 74 °F 77 °F 95 °F (1925)
Min Temperature 61 °F 55 °F 34 °F (1883)
Degree Days  
Heating Degree Days 0 3  
Month to date heating degree days 106  
Since 1 July heating degree days 5451  
Cooling Degree Days 2 3  
Month to date cooling degree days 46  
Year to date cooling degree days 66  
Growing Degree Days 17 (Base 50)    
Moisture  
Dew Point 57 °F    
Average Humidity 72    
Maximum Humidity 94    
Minimum Humidity 51    
Precipitation  
Precipitation 0.01 in 0.15 in 1.38 in (1968)
Month to date precipitation 2.97  
Year to date precipitation 12.74  
Snow  
Snow 0.00 in 0.00 in 0.00 in ()
Month to date snowfall 0.0  
Since 1 July snowfall 20.9  
Snow Depth -    
Sea Level Pressure  
Sea Level Pressure 29.75 in    
Wind  
Wind Speed 8 mph (WSW)    
Max Wind Speed 17 mph    
Max Gust Speed 24 mph    
Visibility 10 miles    
Events Rain    
T = Trace of Precipitation, MM = Missing Value Source: NWS Daily Summary

Daily Weather History Graph

Daily Weather History Graph

Search for Another Location

Airport or City:

Trip Planner

Search our weather history database for the weather conditions in past years. The results will help you decide how hot, cold, wet, or windy it might be!

Date:

Astronomy

May. 22, 2013 Rise Set
Actual Time 5:40 AM CDT 8:15 PM CDT
Civil Twilight 5:09 AM CDT 8:46 PM CDT
Nautical Twilight 4:30 AM CDT 9:25 PM CDT
Astronomical Twilight 3:46 AM CDT 10:09 PM CDT
Moon 5:38 PM CDT (5/22) 3:44 AM CDT (5/22)
Length of Visible Light 15h 37m
Length of Day
14h 35m
Waxing Gibbous, 91% of the Moon is Illuminated
May 22
Waxing Gibbous
May 24
Full
May 31
Last Quarter
Jun 8
New
Jun 16
First Quarter

Hourly Weather History & Observations

Time (CDT) Temp. Dew Point Humidity Pressure Visibility Wind Dir Wind Speed Gust Speed Precip Events Conditions
12:15 AM 67.3 °F 61.2 °F 81% 29.71 in 10.0 mi SSW 4.6 mph - N/A   Scattered Clouds
12:35 AM 66.4 °F 61.2 °F 83% 29.72 in 10.0 mi SW 6.9 mph - N/A   Clear
12:55 AM 65.7 °F 61.7 °F 87% 29.72 in 10.0 mi SW 6.9 mph - N/A   Clear
1:15 AM 65.3 °F 61.3 °F 87% 29.72 in 10.0 mi SW 8.1 mph - N/A   Clear
1:35 AM 66.2 °F 61.5 °F 85% 29.71 in 10.0 mi SW 6.9 mph - N/A   Mostly Cloudy
1:55 AM 66.6 °F 61.7 °F 84% 29.71 in 10.0 mi SW 9.2 mph - N/A   Overcast
2:15 AM 66.2 °F 61.9 °F 86% 29.71 in 10.0 mi WSW 9.2 mph - N/A   Overcast
2:35 AM 65.8 °F 62.4 °F 89% 29.70 in 10.0 mi West 5.8 mph - N/A   Overcast
2:55 AM 65.3 °F 61.9 °F 89% 29.70 in 10.0 mi WSW 3.5 mph - N/A   Scattered Clouds
3:15 AM 64.4 °F 61.7 °F 91% 29.69 in 10.0 mi Calm Calm - N/A   Clear
3:35 AM 64.4 °F 62.2 °F 93% 29.69 in 10.0 mi Calm Calm - N/A   Scattered Clouds
3:55 AM 64.4 °F 62.6 °F 94% 29.69 in 10.0 mi SSE 3.5 mph - N/A   Scattered Clouds
4:15 AM 64.8 °F 62.6 °F 93% 29.69 in 10.0 mi SSW 3.5 mph - N/A   Scattered Clouds
4:35 AM 64.9 °F 62.6 °F 92% 29.69 in 10.0 mi South 3.5 mph - N/A   Mostly Cloudy
4:55 AM 65.3 °F 62.6 °F 91% 29.69 in 10.0 mi SW 5.8 mph - N/A   Mostly Cloudy
5:15 AM 65.3 °F 62.6 °F 91% 29.68 in 10.0 mi Calm Calm - N/A Rain Light Rain
5:35 AM 64.4 °F 62.2 °F 93% 29.65 in 10.0 mi Calm Calm - N/A   Scattered Clouds
5:55 AM 64.4 °F 62.6 °F 94% 29.66 in 10.0 mi Calm Calm - N/A   Mostly Cloudy
6:15 AM 64.6 °F 63.0 °F 94% 29.69 in 7.0 mi South 5.8 mph - N/A   Overcast
6:35 AM 64.8 °F 62.6 °F 93% 29.70 in 10.0 mi SSW 6.9 mph - N/A   Overcast
6:55 AM 64.9 °F 62.1 °F 90% 29.69 in 10.0 mi SW 6.9 mph - N/A   Overcast
7:15 AM 64.8 °F 61.5 °F 89% 29.70 in 10.0 mi SW 8.1 mph - N/A   Overcast
7:35 AM 64.9 °F 61.0 °F 87% 29.70 in 10.0 mi WSW 9.2 mph - N/A   Overcast
7:55 AM 63.9 °F 60.8 °F 90% 29.71 in 7.0 mi West 8.1 mph - N/A Rain Light Rain
8:15 AM 64.4 °F 61.0 °F 89% 29.72 in 10.0 mi WSW 8.1 mph - 0.01 in   Mostly Cloudy
8:35 AM 64.0 °F 59.0 °F 84% 29.72 in 10.0 mi West 6.9 mph - 0.01 in   Mostly Cloudy
8:55 AM 64.8 °F 58.3 °F 79% 29.73 in 10.0 mi West 5.8 mph - 0.01 in   Mostly Cloudy
9:15 AM 65.5 °F 58.3 °F 77% 29.73 in 10.0 mi WSW 5.8 mph - N/A   Scattered Clouds
9:35 AM 66.9 °F 58.3 °F 74% 29.73 in 10.0 mi WSW 6.9 mph - N/A   Clear
9:55 AM 68.4 °F 57.4 °F 68% 29.72 in 10.0 mi SW 8.1 mph - N/A   Clear
10:15 AM 69.8 °F 55.9 °F 61% 29.73 in 10.0 mi WSW 9.2 mph - N/A   Clear
10:35 AM 70.7 °F 55.2 °F 58% 29.73 in 10.0 mi WSW 10.4 mph - N/A   Clear
10:55 AM 71.8 °F 56.5 °F 58% 29.74 in 10.0 mi SW 15.0 mph 19.6 mph N/A   Clear
11:15 AM 71.8 °F 55.6 °F 57% 29.74 in 10.0 mi SW 13.8 mph - N/A   Scattered Clouds
11:35 AM 73.0 °F 56.7 °F 56% 29.74 in 10.0 mi SW 15.0 mph 20.7 mph N/A   Scattered Clouds
11:55 AM 71.2 °F 54.0 °F 54% 29.74 in 10.0 mi WSW 11.5 mph 17.3 mph N/A   Mostly Cloudy
12:15 PM 71.8 °F 54.5 °F 54% 29.74 in 10.0 mi WSW 10.4 mph 16.1 mph N/A   Mostly Cloudy
12:35 PM 71.2 °F 54.3 °F 55% 29.75 in 10.0 mi SW 15.0 mph 19.6 mph N/A   Mostly Cloudy
12:55 PM 72.0 °F 55.0 °F 55% 29.75 in 10.0 mi SW 16.1 mph - N/A   Scattered Clouds
1:15 PM 71.6 °F 54.3 °F 54% 29.75 in 10.0 mi SW 13.8 mph 20.7 mph N/A   Scattered Clouds
1:35 PM 72.0 °F 54.3 °F 54% 29.75 in 10.0 mi SW 10.4 mph - N/A   Mostly Cloudy
1:55 PM 72.1 °F 54.3 °F 53% 29.75 in 10.0 mi WSW 8.1 mph 16.1 mph N/A   Mostly Cloudy
2:15 PM 73.2 °F 54.9 °F 52% 29.75 in 10.0 mi West 15.0 mph 20.7 mph N/A   Scattered Clouds
2:35 PM 73.2 °F 54.5 °F 52% 29.75 in 10.0 mi WSW 17.3 mph 21.9 mph N/A   Scattered Clouds
2:55 PM 73.8 °F 54.7 °F 51% 29.75 in 10.0 mi West 16.1 mph 23.0 mph N/A   Scattered Clouds
3:15 PM 72.1 °F 54.5 °F 54% 29.76 in 10.0 mi WSW 15.0 mph 23.0 mph N/A   Mostly Cloudy
3:35 PM 71.1 °F 54.1 °F 55% - 10.0 mi WSW 16.1 mph 24.2 mph N/A   Overcast
3:55 PM 72.0 °F 54.7 °F 54% 29.76 in 10.0 mi West 16.1 mph 24.2 mph N/A   Mostly Cloudy
4:15 PM 71.2 °F 54.0 °F 54% 29.76 in 10.0 mi WSW 16.1 mph 23.0 mph N/A   Scattered Clouds
4:35 PM 69.8 °F 53.6 °F 56% 29.76 in 10.0 mi WSW 16.1 mph 24.2 mph N/A   Mostly Cloudy
4:55 PM 70.5 °F 54.1 °F 56% 29.77 in 10.0 mi WSW 16.1 mph 23.0 mph N/A   Mostly Cloudy
5:15 PM 69.8 °F 54.0 °F 57% 29.77 in 10.0 mi West 15.0 mph 23.0 mph N/A   Scattered Clouds
5:35 PM 68.5 °F 54.1 °F 60% 29.78 in 10.0 mi West 17.3 mph 21.9 mph N/A   Mostly Cloudy
5:55 PM 67.1 °F 53.4 °F 61% 29.79 in 10.0 mi West 11.5 mph 21.9 mph N/A   Overcast
6:15 PM 66.4 °F 52.7 °F 61% 29.79 in 10.0 mi West 12.7 mph - N/A   Overcast
6:35 PM 65.7 °F 52.9 °F 63% 29.79 in 10.0 mi West 11.5 mph 20.7 mph N/A   Overcast
6:55 PM 65.3 °F 52.9 °F 64% 29.80 in 10.0 mi West 11.5 mph - N/A   Overcast
7:15 PM 64.9 °F 52.7 °F 64% 29.80 in 10.0 mi West 11.5 mph 18.4 mph N/A   Overcast
7:35 PM 64.6 °F 53.1 °F 66% 29.81 in 10.0 mi West 9.2 mph - N/A   Overcast
7:55 PM 64.4 °F 53.6 °F 68% 29.81 in 10.0 mi WSW 9.2 mph - N/A   Overcast
8:15 PM 64.4 °F 53.6 °F 68% 29.82 in 10.0 mi West 9.2 mph - N/A   Overcast
8:35 PM 64.0 °F 53.6 °F 69% 29.82 in 10.0 mi West 8.1 mph - N/A   Overcast
8:55 PM 63.3 °F 53.2 °F 70% 29.82 in 10.0 mi West 8.1 mph - N/A   Mostly Cloudy
9:15 PM 63.0 °F 53.2 °F 71% 29.83 in 10.0 mi West 8.1 mph - N/A   Mostly Cloudy
9:35 PM 63.0 °F 53.1 °F 70% 29.84 in 10.0 mi West 9.2 mph - N/A   Overcast
9:55 PM 63.0 °F 52.7 °F 69% 29.84 in 10.0 mi West 8.1 mph - N/A   Overcast
10:15 PM 62.6 °F 52.9 °F 70% 29.85 in 10.0 mi West 8.1 mph - N/A   Overcast
10:35 PM 62.4 °F 52.9 °F 71% 29.85 in 10.0 mi West 8.1 mph - N/A   Overcast
10:55 PM 61.9 °F 52.9 °F 72% 29.86 in 10.0 mi West 6.9 mph - N/A   Overcast
11:15 PM 61.5 °F 52.7 °F 73% 29.86 in 10.0 mi WSW 5.8 mph - N/A   Mostly Cloudy
11:35 PM 61.9 °F 52.9 °F 72% 29.86 in 10.0 mi WSW 5.8 mph - N/A   Overcast
11:55 PM 61.9 °F 52.7 °F 72% 29.86 in 10.0 mi West 8.1 mph - N/A   Overcast